Radiation Dose at Monitoring Post of Fukushima Daini Nuclear Power Station
Date,Time,MP-1(microSv/h),MP-2(microSv/h),MP-3(microSv/h),MP-4(microSv/h),MP-5(microSv/h),MP-6(microSv/h),MP-7(microSv/h),Wind Direction,Wind Velocity(m/s),Rain
2020/04/02,00:00,0.178,0.163,0.258,0.240,0.257,0.139,0.090,northwest,12.0,No
2020/04/02,00:10,0.176,0.163,0.259,0.239,0.255,0.138,0.089,northwest,12.5,No
2020/04/02,00:20,0.176,0.162,0.259,0.240,0.256,0.136,0.088,northwest,12.2,No
2020/04/02,00:30,0.177,0.162,0.258,0.239,0.256,0.137,0.088,northwest,14.2,No
2020/04/02,00:40,0.178,0.162,0.259,0.238,0.255,0.136,0.088,northwest,12.6,Yes
2020/04/02,00:50,0.176,0.162,0.257,0.238,0.255,0.136,0.087,northwest,13.4,Yes
2020/04/02,01:00,0.175,0.160,0.257,0.238,0.254,0.136,0.086,northwest,12.6,Yes
2020/04/02,01:10,0.175,0.160,0.256,0.237,0.253,0.135,0.085,northwest,12.3,No
2020/04/02,01:20,0.175,0.159,0.257,0.237,0.254,0.134,0.085,northwest,12.8,No
2020/04/02,01:30,0.175,0.159,0.256,0.237,0.252,0.134,0.084,northwest,11.7,No
2020/04/02,01:40,0.174,0.159,0.256,0.236,0.252,0.134,0.084,northwest,12.5,No
2020/04/02,01:50,0.174,0.158,0.256,0.236,0.253,0.133,0.084,northwest,13.1,No
2020/04/02,02:00,0.173,0.157,0.255,0.235,0.252,0.133,0.083,northwest,11.7,No
2020/04/02,02:10,0.174,0.158,0.255,0.235,0.252,0.133,0.083,northwest,12.0,No
2020/04/02,02:20,0.174,0.158,0.257,0.235,0.253,0.132,0.083,northwest,12.0,No
2020/04/02,02:30,0.174,0.156,0.256,0.235,0.250,0.134,0.083,northwest,10.6,No
2020/04/02,02:40,0.174,0.157,0.254,0.235,0.252,0.133,0.082,northwest,10.4,No
2020/04/02,02:50,0.172,0.157,0.255,0.236,0.251,0.133,0.083,northwest,8.7,No
2020/04/02,03:00,0.174,0.157,0.255,0.235,0.252,0.132,0.083,north-northwest,8.3,No
2020/04/02,03:10,0.173,0.158,0.255,0.234,0.252,0.132,0.082,north-northwest,9.6,No
2020/04/02,03:20,0.172,0.157,0.256,0.235,0.250,0.132,0.083,northwest,10.0,No
2020/04/02,03:30,0.174,0.156,0.255,0.235,0.253,0.132,0.083,northwest,10.4,No
2020/04/02,03:40,0.174,0.158,0.255,0.236,0.251,0.132,0.083,north-northwest,9.0,No
2020/04/02,03:50,0.175,0.157,0.255,0.235,0.253,0.133,0.082,northwest,7.5,No
2020/04/02,04:00,0.174,0.157,0.254,0.234,0.252,0.133,0.083,northwest,7.3,No
2020/04/02,04:10,0.173,0.158,0.257,0.236,0.252,0.132,0.081,west-northwest,8.1,No
2020/04/02,04:20,0.174,0.157,0.257,0.235,0.252,0.134,0.082,west-northwest,8.7,No
2020/04/02,04:30,0.173,0.157,0.255,0.236,0.250,0.133,0.082,west-northwest,9.0,No
2020/04/02,04:40,0.173,0.158,0.256,0.234,0.252,0.133,0.082,west-northwest,10.3,No
2020/04/02,04:50,0.174,0.157,0.256,0.235,0.250,0.133,0.082,west-northwest,10.7,No
2020/04/02,05:00,0.174,0.158,0.255,0.236,0.251,0.133,0.082,west-northwest,10.3,No
2020/04/02,05:10,0.174,0.157,0.257,0.236,0.253,0.132,0.082,west-northwest,10.9,No
2020/04/02,05:20,0.174,0.156,0.256,0.235,0.250,0.133,0.082,west-northwest,9.0,No
2020/04/02,05:30,0.173,0.157,0.257,0.237,0.254,0.132,0.082,northwest,9.3,No
2020/04/02,05:40,0.174,0.156,0.256,0.235,0.250,0.132,0.082,northwest,9.3,No
2020/04/02,05:50,0.174,0.157,0.256,0.235,0.252,0.133,0.082,west-northwest,7.3,No
2020/04/02,06:00,0.174,0.157,0.256,0.236,0.251,0.133,0.082,west-northwest,7.4,No
2020/04/02,06:10,0.175,0.158,0.257,0.235,0.250,0.133,0.082,west-northwest,7.3,No
2020/04/02,06:20,0.174,0.157,0.258,0.235,0.252,0.133,0.081,west-northwest,9.2,No
2020/04/02,06:30,0.174,0.158,0.257,0.236,0.251,0.133,0.082,west-northwest,8.3,No
2020/04/02,06:40,0.174,0.158,0.256,0.236,0.251,0.133,0.081,northwest,8.5,No
2020/04/02,06:50,0.173,0.157,0.255,0.235,0.252,0.133,0.081,northwest,8.4,No
2020/04/02,07:00,0.174,0.158,0.256,0.235,0.251,0.134,0.081,northwest,8.1,No
2020/04/02,07:10,0.173,0.157,0.257,0.235,0.252,0.132,0.083,west-northwest,6.8,No
2020/04/02,07:20,0.175,0.157,0.256,0.236,0.251,0.132,0.082,northwest,5.5,No
2020/04/02,07:30,0.174,0.157,0.256,0.236,0.250,0.133,0.082,west-northwest,7.0,No
2020/04/02,07:40,0.175,0.158,0.257,0.235,0.251,0.132,0.083,west-northwest,8.1,No
2020/04/02,07:50,0.174,0.158,0.257,0.235,0.250,0.133,0.081,west-northwest,7.4,No
2020/04/02,08:00,0.174,0.157,0.256,0.236,0.252,0.133,0.082,west-northwest,10.3,No
2020/04/02,08:10,0.174,0.157,0.257,0.234,0.252,0.134,0.082,west,10.9,No
2020/04/02,08:20,0.175,0.159,0.255,0.237,0.250,0.134,0.082,west-northwest,12.3,No
2020/04/02,08:30,0.173,0.157,0.256,0.236,0.253,0.133,0.082,west,12.6,No
2020/04/02,08:40,0.174,0.158,0.257,0.237,0.251,0.134,0.082,west,12.3,No
2020/04/02,08:50,0.174,0.158,0.257,0.236,0.250,0.134,0.082,west-northwest,10.0,No
2020/04/02,09:00,0.174,0.158,0.256,0.234,0.254,0.135,0.082,west-northwest,7.3,No
2020/04/02,09:10,0.175,0.157,0.257,0.238,0.251,0.135,0.081,west-northwest,11.7,No
2020/04/02,09:20,0.174,0.158,0.257,0.237,0.253,0.135,0.082,west-northwest,9.6,No
2020/04/02,09:30,0.175,0.157,0.256,0.236,0.252,0.134,0.081,west-northwest,9.0,No
2020/04/02,09:40,0.174,0.157,0.258,0.236,0.251,0.133,0.083,west,8.4,No
2020/04/02,09:50,0.174,0.159,0.257,0.235,0.252,0.135,0.082,west,6.6,No
2020/04/02,10:00,0.175,0.157,0.258,0.238,0.252,0.133,0.082,west-northwest,9.3,No
2020/04/02,10:10,0.175,0.157,0.259,0.235,0.253,0.134,0.082,northwest,8.5,No
2020/04/02,10:20,0.175,0.157,0.257,0.235,0.251,0.135,0.081,west-northwest,7.1,No
2020/04/02,10:30,0.174,0.157,0.258,0.237,0.251,0.134,0.082,west-northwest,9.8,No
2020/04/02,10:40,0.175,0.156,0.256,0.236,0.250,0.133,0.082,west-northwest,10.4,No
2020/04/02,10:50,0.173,0.157,0.259,0.236,0.251,0.135,0.082,west-northwest,10.7,No
2020/04/02,11:00,0.175,0.158,0.258,0.238,0.252,0.134,0.082,west-northwest,10.6,No
2020/04/02,11:10,0.174,0.158,0.259,0.236,0.250,0.134,0.082,west-northwest,8.7,No
2020/04/02,11:20,0.176,0.156,0.259,0.237,0.253,0.135,0.082,west-northwest,9.8,No
2020/04/02,11:30,0.175,0.158,0.260,0.235,0.251,0.133,0.081,west-northwest,10.9,No
2020/04/02,11:40,0.175,0.158,0.258,0.238,0.253,0.135,0.083,west-northwest,8.8,No
2020/04/02,11:50,0.175,0.158,0.260,0.237,0.252,0.134,0.082,west-northwest,7.6,No
2020/04/02,12:00,0.175,0.158,0.260,0.237,0.252,0.135,0.081,west-northwest,8.4,No
2020/04/02,12:10,0.175,0.159,0.259,0.238,0.253,0.136,0.082,west-northwest,9.2,No
2020/04/02,12:20,0.175,0.158,0.260,0.237,0.252,0.135,0.083,west-northwest,6.6,No
2020/04/02,12:30,0.175,0.158,0.259,0.237,0.255,0.134,0.082,northwest,9.3,No
2020/04/02,12:40,0.177,0.159,0.260,0.237,0.252,0.134,0.082,west-northwest,11.1,No
2020/04/02,12:50,0.175,0.159,0.259,0.238,0.254,0.135,0.082,west-northwest,10.4,No
2020/04/02,13:00,0.176,0.158,0.260,0.236,0.253,0.134,0.082,west,13.9,No
2020/04/02,13:10,0.175,0.158,0.259,0.239,0.251,0.135,0.082,west-northwest,8.3,No
2020/04/02,13:20,0.176,0.159,0.261,0.238,0.253,0.134,0.083,west-northwest,8.5,No
2020/04/02,13:30,0.176,0.159,0.262,0.240,0.253,0.135,0.083,west-northwest,8.8,No
2020/04/02,13:40,0.176,0.159,0.260,0.237,0.256,0.135,0.083,west-northwest,10.0,No
2020/04/02,13:50,0.176,0.159,0.263,0.238,0.252,0.136,0.082,west-northwest,10.4,No
2020/04/02,14:00,0.176,0.159,0.262,0.238,0.254,0.135,0.082,west-northwest,10.3,No
2020/04/02,14:10,0.176,0.159,0.261,0.240,0.253,0.135,0.083,west-northwest,10.6,No
2020/04/02,14:20,0.175,0.158,0.261,0.239,0.250,0.136,0.083,west-northwest,8.1,No
2020/04/02,14:30,0.176,0.157,0.262,0.237,0.255,0.135,0.082,west-northwest,9.5,No
2020/04/02,14:40,0.175,0.157,0.260,0.240,0.252,0.135,0.083,west,11.7,No
2020/04/02,14:50,0.176,0.158,0.262,0.239,0.252,0.135,0.083,west-northwest,9.8,No
2020/04/02,15:00,0.175,0.158,0.261,0.239,0.253,0.135,0.082,west,8.8,No
2020/04/02,15:10,0.177,0.159,0.262,0.240,0.254,0.135,0.083,west-northwest,9.3,No
2020/04/02,15:20,0.175,0.158,0.263,0.240,0.255,0.137,0.083,west,5.8,No
2020/04/02,15:30,0.178,0.158,0.262,0.241,0.253,0.136,0.082,west-northwest,8.8,No
2020/04/02,15:40,0.177,0.159,0.263,0.240,0.254,0.136,0.083,west,5.9,No
2020/04/02,15:50,0.177,0.159,0.262,0.242,0.251,0.136,0.082,west-northwest,4.9,No
2020/04/02,16:00,0.176,0.159,0.263,0.240,0.255,0.135,0.083,west-northwest,7.5,No
2020/04/02,16:10,0.177,0.159,0.262,0.241,0.253,0.135,0.083,west,11.5,No
2020/04/02,16:20,0.176,0.158,0.263,0.240,0.252,0.135,0.083,west-northwest,7.0,No
2020/04/02,16:30,0.176,0.158,0.264,0.240,0.254,0.135,0.083,west-northwest,6.3,No
2020/04/02,16:40,0.177,0.159,0.263,0.242,0.253,0.135,0.082,west,12.2,No
2020/04/02,16:50,0.177,0.158,0.264,0.240,0.253,0.136,0.083,west-northwest,11.2,No
2020/04/02,17:00,0.176,0.158,0.263,0.240,0.255,0.136,0.083,west-northwest,9.8,No
2020/04/02,17:10,0.176,0.158,0.263,0.241,0.253,0.135,0.082,west-northwest,10.1,No
2020/04/02,17:20,0.176,0.158,0.263,0.241,0.257,0.136,0.083,west-northwest,9.2,No
2020/04/02,17:30,0.177,0.159,0.264,0.241,0.255,0.135,0.083,west-northwest,7.7,No
2020/04/02,17:40,0.177,0.161,0.263,0.240,0.256,0.137,0.083,west-northwest,7.8,No
2020/04/02,17:50,0.177,0.160,0.262,0.241,0.255,0.137,0.082,west-northwest,5.9,No
2020/04/02,18:00,0.177,0.160,0.263,0.240,0.255,0.136,0.083,west-northwest,5.7,No
2020/04/02,18:10,0.177,0.160,0.263,0.241,0.256,0.137,0.083,west-northwest,9.0,No
2020/04/02,18:20,0.177,0.160,0.262,0.241,0.254,0.136,0.083,west-northwest,7.5,No
2020/04/02,18:30,0.177,0.159,0.262,0.239,0.254,0.137,0.083,north-northwest,6.3,No
2020/04/02,18:40,0.177,0.160,0.263,0.242,0.256,0.136,0.083,northwest,3.4,No
2020/04/02,18:50,0.176,0.160,0.265,0.241,0.253,0.136,0.083,north,2.2,No
2020/04/02,19:00,0.177,0.159,0.263,0.241,0.254,0.136,0.082,west-northwest,3.3,No
2020/04/02,19:10,0.178,0.159,0.262,0.241,0.254,0.135,0.083,north-northwest,4.4,No
2020/04/02,19:20,0.177,0.159,0.265,0.241,0.254,0.137,0.083,northwest,4.5,No
2020/04/02,19:30,0.177,0.160,0.263,0.241,0.255,0.136,0.082,northwest,4.9,No
2020/04/02,19:40,0.177,0.159,0.263,0.240,0.255,0.135,0.082,northwest,7.9,No
2020/04/02,19:50,0.177,0.160,0.263,0.242,0.255,0.136,0.083,northwest,6.7,No
2020/04/02,20:00,0.177,0.159,0.263,0.240,0.253,0.136,0.083,northwest,6.4,No
2020/04/02,20:10,0.178,0.160,0.263,0.241,0.253,0.135,0.083,west-northwest,6.9,No
2020/04/02,20:20,0.176,0.160,0.263,0.240,0.254,0.136,0.083,northwest,5.1,No
2020/04/02,20:30,0.176,0.160,0.263,0.241,0.255,0.137,0.083,west-northwest,3.7,No
2020/04/02,20:40,0.177,0.159,0.263,0.242,0.254,0.136,0.083,northwest,5.1,No
2020/04/02,20:50,0.177,0.160,0.263,0.240,0.253,0.136,0.082,north-northwest,3.8,No
2020/04/02,21:00,0.178,0.160,0.263,0.241,0.253,0.136,0.082,north,5.2,No
2020/04/02,21:10,0.177,0.158,0.264,0.242,0.254,0.136,0.082,north-northwest,6.5,No
2020/04/02,21:20,0.177,0.159,0.263,0.241,0.255,0.136,0.083,north-northwest,4.4,No
2020/04/02,21:30,0.177,0.159,0.263,0.242,0.254,0.136,0.083,northwest,2.9,No
2020/04/02,21:40,0.177,0.160,0.263,0.241,0.253,0.136,0.082,north-northwest,3.8,No
2020/04/02,21:50,0.177,0.160,0.263,0.241,0.255,0.137,0.083,northwest,2.5,No
2020/04/02,22:00,0.176,0.159,0.263,0.242,0.254,0.136,0.083,north-northwest,3.0,No
2020/04/02,22:10,0.178,0.159,0.263,0.241,0.253,0.137,0.083,northwest,3.2,No
2020/04/02,22:20,0.178,0.160,0.263,0.242,0.256,0.136,0.083,north-northwest,3.9,No
2020/04/02,22:30,0.176,0.159,0.263,0.241,0.254,0.136,0.083,northwest,3.4,No
2020/04/02,22:40,0.177,0.160,0.263,0.240,0.254,0.137,0.083,north-northwest,3.1,No
2020/04/02,22:50,0.177,0.159,0.263,0.241,0.253,0.136,0.083,north-northwest,2.8,No
2020/04/02,23:00,0.177,0.160,0.264,0.241,0.253,0.136,0.083,north-northwest,2.5,No
2020/04/02,23:10,0.177,0.158,0.264,0.242,0.253,0.137,0.083,northwest,2.3,No
2020/04/02,23:20,0.177,0.160,0.264,0.242,0.253,0.135,0.084,north-northwest,1.5,No
2020/04/02,23:30,0.178,0.159,0.264,0.242,0.254,0.136,0.083,north-northwest,2.3,No
2020/04/02,23:40,0.177,0.159,0.264,0.242,0.254,0.137,0.082,northwest,1.8,No
2020/04/02,23:50,0.178,0.159,0.263,0.241,0.253,0.135,0.083,west-northwest,0.6,No
